• In Hungary
  • List of Countries
  • For 7 days
  • Water Temperature
  • Satellite Maps
  • Weather Map
  • News
  • Weather Widgets
  • user-avatar
    Login

    Hourly Weather Brandys nad Labem-Stara Boleslav

    Today, 12 December, Tuesday

    Time Temperature Precipitation Wind Pressure Humidity
    00:00 +5°C° 0 mm 3 mps 726 mmHg 84%
    01:00 +4°C° 0 mm 3 mps 727 mmHg 86%
    02:00 +5°C° 0.2 mm 3 mps 727 mmHg 86%
    03:00 +5°C° 0.2 mm 4 mps 728 mmHg 85%
    04:00 +5°C° 0.2 mm 4 mps 729 mmHg 85%
    05:00 +5°C° 0.1 mm 5 mps 730 mmHg 81%
    06:00 +4°C° 0.1 mm 6 mps 731 mmHg 77%
    07:00 +4°C° 0.1 mm 7 mps 732 mmHg 73%
    08:00 +4°C° 0 mm 7 mps 733 mmHg 70%
    09:00 +4°C° 0 mm 8 mps 734 mmHg 68%
    10:00 +2°C° 0 mm 8 mps 735 mmHg 65%
    11:00 +2°C° 0 mm 8 mps 736 mmHg 64%
    12:00 +2°C° 0 mm 8 mps 738 mmHg 63%
    13:00 +4°C° 0 mm 8 mps 739 mmHg 61%
    14:00 +3°C° 0 mm 7 mps 740 mmHg 62%
    15:00 +3°C° 0 mm 6 mps 741 mmHg 63%
    16:00 +2°C° 0 mm 6 mps 742 mmHg 64%
    17:00 +2°C° 0 mm 6 mps 742 mmHg 66%
    18:00 +1°C° 0 mm 6 mps 743 mmHg 68%
    19:00 +1°C° 0 mm 5 mps 744 mmHg 69%
    20:00 +1°C° 0 mm 5 mps 744 mmHg 70%
    21:00 +1°C° 0 mm 5 mps 745 mmHg 72%
    22:00 +1°C° 0 mm 4 mps 746 mmHg 73%
    23:00 0°C° 0 mm 4 mps 746 mmHg 75%

    Tomorrow, 13 December, Wednesday

    Time Temperature Precipitation Wind Pressure Humidity
    00:00 0°C° 0 mm 4 mps 746 mmHg 76%
    01:00 0°C° 0 mm 3 mps 747 mmHg 78%
    02:00 0°C° 0 mm 3 mps 747 mmHg 80%
    03:00 0°C° 0 mm 3 mps 747 mmHg 81%
    04:00 -1°C° 0 mm 3 mps 747 mmHg 83%
    05:00 -1°C° 0 mm 3 mps 747 mmHg 83%
    06:00 -1°C° 0 mm 3 mps 748 mmHg 84%
    07:00 -1°C° 0 mm 3 mps 748 mmHg 84%
    08:00 -1°C° 0 mm 3 mps 748 mmHg 80%
    09:00 -1°C° 0 mm 4 mps 748 mmHg 76%
    10:00 0°C° 0 mm 4 mps 747 mmHg 72%
    11:00 0°C° 0 mm 4 mps 747 mmHg 68%
    12:00 +1°C° 0 mm 5 mps 746 mmHg 64%
    13:00 +2°C° 0 mm 5 mps 745 mmHg 60%
    14:00 +1°C° 0 mm 4 mps 744 mmHg 62%
    15:00 0°C° 0 mm 4 mps 743 mmHg 64%
    16:00 0°C° 0 mm 4 mps 743 mmHg 67%
    17:00 0°C° 0 mm 4 mps 742 mmHg 64%
    18:00 0°C° 0 mm 4 mps 741 mmHg 62%
    19:00 0°C° 0 mm 5 mps 740 mmHg 59%
    20:00 0°C° 0.1 mm 5 mps 740 mmHg 58%
    21:00 +1°C° 0.1 mm 5 mps 739 mmHg 58%
    22:00 +1°C° 0.1 mm 5 mps 738 mmHg 57%
    23:00 +1°C° 0.1 mm 5 mps 737 mmHg 59%

    Day after tomorrow, 14 December, Thursday

    Time Temperature Precipitation Wind Pressure Humidity
    00:00 +1°C° 0.1 mm 5 mps 736 mmHg 62%
    01:00 +2°C° 0.1 mm 5 mps 735 mmHg 64%
    02:00 +2°C° 0.3 mm 5 mps 735 mmHg 66%
    03:00 +2°C° 0.3 mm 5 mps 734 mmHg 68%
    04:00 +2°C° 0.3 mm 5 mps 734 mmHg 69%
    05:00 +2°C° 0.2 mm 5 mps 734 mmHg 72%
    06:00 +3°C° 0.2 mm 5 mps 734 mmHg 75%
    07:00 +3°C° 0.2 mm 5 mps 734 mmHg 78%
    08:00 +3°C° 0 mm 6 mps 734 mmHg 77%
    09:00 +3°C° 0 mm 6 mps 735 mmHg 75%
    10:00 +3°C° 0 mm 6 mps 735 mmHg 73%
    11:00 +4°C° 0 mm 6 mps 736 mmHg 66%
    12:00 +4°C° 0 mm 6 mps 736 mmHg 60%
    13:00 +4°C° 0 mm 6 mps 736 mmHg 53%
    14:00 +3°C° 0 mm 5 mps 736 mmHg 57%
    15:00 +3°C° 0 mm 4 mps 735 mmHg 61%
    16:00 +2°C° 0 mm 3 mps 735 mmHg 65%
    17:00 +2°C° 0 mm 3 mps 734 mmHg 69%
    18:00 +1°C° 0 mm 4 mps 734 mmHg 73%
    19:00 +1°C° 0 mm 4 mps 733 mmHg 78%
    20:00 +1°C° 0.2 mm 5 mps 732 mmHg 78%
    21:00 +2°C° 0.2 mm 6 mps 731 mmHg 78%
    22:00 +2°C° 0.2 mm 6 mps 730 mmHg 79%
    23:00 +2°C° 0.5 mm 6 mps 729 mmHg 79%

    15 December, Friday

    Time Temperature Precipitation Wind Pressure Humidity
    00:00 +3°C° 0.5 mm 6 mps 729 mmHg 78%
    01:00 +3°C° 0.5 mm 6 mps 728 mmHg 78%
    02:00 +3°C° 0.2 mm 7 mps 729 mmHg 76%
    03:00 +2°C° 0.2 mm 7 mps 729 mmHg 73%
    04:00 +1°C° 0.2 mm 8 mps 730 mmHg 71%
    05:00 0°C° 0.1 mm 7 mps 731 mmHg 72%
    06:00 0°C° 0.1 mm 7 mps 732 mmHg 73%
    07:00 -1°C° 0.1 mm 6 mps 732 mmHg 74%
    08:00 -1°C° 0 mm 6 mps 733 mmHg 74%
    09:00 0°C° 0 mm 5 mps 734 mmHg 74%
    10:00 0°C° 0 mm 5 mps 734 mmHg 74%
    11:00 +1°C° 0 mm 4 mps 734 mmHg 72%
    12:00 +1°C° 0 mm 4 mps 734 mmHg 70%
    13:00 +3°C° 0 mm 4 mps 734 mmHg 67%
    14:00 +2°C° 0 mm 3 mps 734 mmHg 70%
    15:00 +2°C° 0 mm 2 mps 733 mmHg 73%
    16:00 +2°C° 0 mm 2 mps 733 mmHg 76%
    17:00 +1°C° 0 mm 2 mps 734 mmHg 77%
    18:00 +1°C° 0 mm 2 mps 734 mmHg 78%
    19:00 +1°C° 0 mm 2 mps 734 mmHg 79%
    20:00 +1°C° 0 mm 2 mps 734 mmHg 80%
    21:00 +1°C° 0 mm 2 mps 734 mmHg 81%
    22:00 +1°C° 0 mm 2 mps 734 mmHg 82%
    23:00 +2°C° 0 mm 1 mps 734 mmHg 82%

    16 December, Saturday

    Time Temperature Precipitation Wind Pressure Humidity
    00:00 +2°C° 0 mm 1 mps 734 mmHg 83%
    01:00 +2°C° 0 mm 1 mps 734 mmHg 84%
    02:00 +2°C° 0 mm 1 mps 734 mmHg 85%
    03:00 +2°C° 0 mm 1 mps 734 mmHg 87%
    04:00 +2°C° 0 mm 1 mps 734 mmHg 88%
    05:00 +1°C° 0 mm 2 mps 735 mmHg 88%
    06:00 +1°C° 0 mm 2 mps 735 mmHg 88%
    07:00 +1°C° 0 mm 2 mps 735 mmHg 88%
    08:00 +1°C° 0 mm 2 mps 736 mmHg 85%
    09:00 +1°C° 0 mm 3 mps 736 mmHg 82%
    10:00 +1°C° 0 mm 3 mps 737 mmHg 78%
    11:00 +2°C° 0 mm 3 mps 737 mmHg 76%
    12:00 +2°C° 0 mm 3 mps 737 mmHg 74%
    13:00 +3°C° 0 mm 4 mps 738 mmHg 72%
    14:00 +2°C° 0 mm 3 mps 738 mmHg 75%
    15:00 +2°C° 0 mm 3 mps 739 mmHg 78%
    16:00 +2°C° 0 mm 2 mps 739 mmHg 82%
    17:00 +1°C° 0.1 mm 3 mps 740 mmHg 82%
    18:00 0°C° 0.1 mm 3 mps 740 mmHg 83%
    19:00 0°C° 0.1 mm 3 mps 741 mmHg 84%
    20:00 0°C° 0 mm 3 mps 741 mmHg 84%
    21:00 0°C° 0 mm 3 mps 741 mmHg 85%
    22:00 0°C° 0 mm 3 mps 742 mmHg 85%
    23:00 -1°C° 0 mm 3 mps 742 mmHg 86%

    17 December, Sunday

    Time Temperature Precipitation Wind Pressure Humidity
    00:00 -1°C° 0 mm 3 mps 742 mmHg 87%
    01:00 -1°C° 0 mm 3 mps 741 mmHg 88%
    02:00 -1°C° 0 mm 3 mps 742 mmHg 88%
    03:00 -1°C° 0 mm 3 mps 742 mmHg 88%
    04:00 -1°C° 0 mm 3 mps 742 mmHg 88%
    05:00 -1°C° 0 mm 3 mps 742 mmHg 86%
    06:00 0°C° 0 mm 3 mps 742 mmHg 85%
    07:00 0°C° 0 mm 3 mps 742 mmHg 84%
    08:00 -1°C° 0 mm 4 mps 742 mmHg 81%
    09:00 -1°C° 0 mm 4 mps 743 mmHg 79%
    10:00 0°C° 0 mm 4 mps 743 mmHg 77%
    11:00 0°C° 0.1 mm 4 mps 743 mmHg 76%
    12:00 0°C° 0.1 mm 4 mps 743 mmHg 76%
    13:00 0°C° 0.1 mm 5 mps 743 mmHg 76%
    14:00 0°C° 0.1 mm 4 mps 743 mmHg 78%
    15:00 0°C° 0.1 mm 3 mps 743 mmHg 80%
    16:00 0°C° 0.1 mm 3 mps 743 mmHg 82%
    17:00 +1°C° 0.1 mm 2 mps 743 mmHg 84%
    18:00 -1°C° 0.1 mm 2 mps 743 mmHg 86%
    19:00 -1°C° 0.1 mm 2 mps 743 mmHg 88%
    20:00 -1°C° 0.1 mm 2 mps 744 mmHg 89%
    21:00 -1°C° 0.1 mm 2 mps 744 mmHg 90%
    22:00 -1°C° 0.1 mm 2 mps 744 mmHg 91%
    23:00 -1°C° 0.1 mm 2 mps 745 mmHg 91%
    Show more